sat.trackr.live / text

‹ back to catalog

STARLINK-37168

NORAD 68766 · 2026-086A

PAYLOAD ACTIVE UNKNOWN

§ Identity

Operator
Country
US
Launch date
2026-04-19
Launch site
AFWTR
Launch vehicle
Mass (kg)
RCS (m²)

Purposes: comms

External: N2YO · Heavens-Above · Gunter

§ Orbital elements

Epoch: 2026-05-25T04:00:03.998880Z

Period
92.74 min
Inclination
97.2853°
Eccentricity
0.0001617
Mean motion
15.52754616 rev/d
Perigee alt
407.6 km
Apogee alt
409.8 km
Semi-major
6,786.8 km
B*
-3.4906e-2
RAAN
181.9280°
Arg perigee
51.8423°
Mean anomaly
67.8800°
Rev number
606

§ Raw data

STARLINK-371681 68766U 26086A   26145.16671295 -.01901077  00000+0 -34906-1 0  99992 68766  97.2853 181.9280 0001617  51.8423  67.8800 15.52754616  6069

JSON: /api/v1/satellites/68766 · /tle

For live sub-satellite position, see the globe view (requires WebGL).

§ Visibility from observer

Set your observer location to see the next 7 days of passes ≥ 10°. The values pass through the URL so the page stays shareable.

No JS? Fill the form by hand. The geolocation button needs JavaScript.